Probability
0 0 0 0 0 0 0 0 0 0 0 0 0 0 10 10 13 16 26 23 26 32 29 29 29 29 29 29 32 29 35 32 32 29 29 29 26 23 23 26 26 29 29 29
0 0 0 0 0 0 0 0 0 0 0 0 0 0 3 6 6 10 23 23 26 26 29 32 29 29 35 32 32 29 32 29 35 29 26 26 29 26 26 26 26 26 32 26
0 0 0 0 0 0 0 0 0 0 0 0 0 0 3 3 10 10 16 26 26 29 32 29 29 32 39 35 29 29 26 26 29 26 29 29 26 23 19 19 19 19 23 26
0 0 0 0 0 0 0 0 0 0 0 0 0 0 0 3 6 13 13 16 23 26 29 29 19 29 26 26 26 26 26 26 26 26 26 26 23 23 19 23 16 13 13 16
0 0 0 0 0 0 0 0 0 0 0 0 0 0 0 0 3 6 6 6 13 23 29 29 32 26 26 29 23 23 23 26 26 19 19 16 19 19 16 13 13 13 13 13
0 0 0 0 0 0 0 0 0 0 0 0 0 0 0 0 0 0 6 6 6 23 26 26 13 23 19 23 19 19 19 16 16 16 16 19 19 19 16 13 13 13 13 13
0 0 0 0 0 0 0 0 0 0 0 0 0 0 0 0 0 0 3 6 10 6 19 16 13 16 23 19 19 19 16 10 13 13 16 16 16 19 13 13 13 13 13 13
0 0 0 0 0 0 0 0 0 0 0 0 0 0 0 0 0 0 3 6 10 6 10 23 16 19 23 23 19 13 10 10 16 13 13 19 19 13 13 13 13 10 10 10
0 0 0 0 0 0 0 0 0 0 0 0 0 0 0 0 0 0 3 6 6 6 10 16 13 16 19 19 10 10 13 13 13 13 13 13 10 13 13 13 10 10 10 10
0 0 0 0 0 0 0 0 0 0 0 0 0 0 0 0 3 3 3 6 10 10 13 16 16 16 13 10 6 6 10 10 13 13 13 10 10 10 13 10 10 6 6 10
0 0 0 0 0 0 0 0 0 0 0 0 0 0 0 0 0 3 3 13 13 13 13 10 16 6 3 6 6 6 6 6 10 10 13 13 10 3 3 6 6 6 6 10
0 0 0 0 0 0 0 0 0 0 0 0 0 0 0 0 0 3 10 13 13 13 13 6 6 6 0 3 3 3 6 6 6 6 6 6 6 6 6 3 3 3 3 3
0 0 0 0 0 0 0 0 0 0 0 0 0 0 0 0 0 3 6 13 13 10 10 6 6 0 3 3 0 3 3 6 6 10 10 3 3 3 3 3 3 3 3 3
0 0 0 0 0 0 0 0 0 0 0 0 0 0 0 0 0 0 3 10 6 6 3 3 0 0 0 0 0 0 3 6 6 6 3 3 3 3 3 3 3 3 3 3
0 0 0 0 0 0 0 0 0 0 0 0 0 0 0 0 0 0 3 10 6 6 0 0 0 0 0 0 0 0 0 3 6 6 0 3 0 3 3 3 3 3 3 3
0 0 0 0 0 0 0 0 0 0 0 0 0 0 0 0 0 3 3 10 6 0 0 3 3 3 0 0 0 0 0 3 3 3 0 0 0 0 0 0 0 3 3 3
0 0 0 0 0 0 0 0 0 0 0 0 0 0 0 0 0 3 3 3 6 3 3 0 0 0 0 0 0 0 0 0 3 3 0 0 0 0 0 0 0 0 0 0
0 0 0 0 0 0 0 0 0 0 0 0 0 0 0 0 0 0 3 3 3 0 0 0 0 0 0 0 0 0 0 0 3 3 0 0 0 0 0 0 0 0 0 0
0 0 0 0 0 0 0 0 0 0 0 0 0 0 0 0 0 0 0 3 0 0 0 0 0 0 0 0 3 0 0 0 0 0 0 0 0 0 0 0 0 0 0 0
0 0 0 0 0 0 0 0 0 0 0 0 0 0 0 0 0 0 0 3 0 0 0 0 0 0 0 0 3 0 0 0 0 0 0 0 0 0 0 0 0 0 0 0
0 0 0 0 0 0 0 0 0 0 0 0 0 0 0 0 0 0 0 0 0 0 0 0 0 0 0 0 0 0 0 0 0 0 0 0 0 0 0 0 0 0 0 0
0 0 0 0 0 0 0 0 0 0 0 0 0 0 0 0 0 0 3 0 0 0 0 0 0 0 0 0 0 0 0 0 0 0 0 0 0 0 0 0 0 0 0 0
0 0 0 0 0 0 0 0 0 0 0 0 0 3 0 0 0 0 0 0 0 0 0 0 0 0 0 0 0 0 0 0 0 0 0 0 0 0 0 0 0 0 0 0
0 0 0 0 0 0 0 0 0 0 0 0 0 0 0 0 0 0 0 0 0 0 0 0 0 0 0 0 0 0 0 0 3 0 0 0 0 0 0 0 0 0 0 0
0 0 0 0 0 0 0 0 0 0 0 0 0 0 0 0 0 0 0 0 0 0 0 0 0 0 0 0 0 0 0 0 0 0 0 0 0 0 0 0 0 0 0 0
0 0 0 0 0 0 0 0 0 0 0 0 0 0 0 0 0 0 0 0 0 0 0 0 0 0 0 0 0 0 0 3 3 3 0 0 0 0 0 0 0 0 0 0
Height
5871 5871 5869 5868 5866 5865 5863 5861 5860 5860 5858 5857 5854 5853 5852 5851 5850 5848 5847 5845 5843 5842 5841 5840 5839 5837 5836 5834 5833 5831 5829 5828 5827 5826 5825 5824 5822 5820 5819 5817 5815 5813 5811 5809
5870 5869 5868 5866 5864 5862 5860 5858 5857 5857 5856 5853 5851 5849 5848 5847 5845 5844 5842 5841 5840 5839 5838 5836 5835 5833 5832 5830 5829 5827 5825 5824 5823 5822 5821 5819 5818 5816 5814 5812 5811 5808 5806 5803
5867 5867 5865 5863 5861 5859 5857 5856 5854 5852 5851 5849 5847 5846 5844 5842 5840 5839 5837 5836 5835 5834 5833 5831 5830 5829 5828 5825 5824 5823 5822 5820 5819 5818 5816 5815 5813 5811 5810 5808 5806 5803 5801 5798
5864 5863 5862 5860 5858 5856 5854 5852 5850 5848 5846 5844 5843 5841 5839 5837 5836 5833 5832 5830 5830 5829 5827 5825 5824 5823 5822 5821 5819 5818 5817 5816 5814 5813 5812 5811 5809 5807 5805 5803 5800 5798 5795 5793
5862 5860 5858 5856 5854 5851 5849 5847 5846 5844 5842 5840 5838 5836 5835 5832 5830 5829 5827 5826 5824 5823 5821 5821 5819 5818 5817 5816 5814 5814 5812 5811 5809 5808 5806 5805 5803 5802 5800 5798 5795 5793 5790 5787
5859 5857 5854 5852 5850 5848 5845 5844 5842 5840 5838 5836 5833 5831 5829 5827 5825 5824 5822 5821 5819 5817 5816 5815 5814 5813 5812 5811 5809 5808 5807 5806 5804 5802 5801 5799 5798 5797 5795 5793 5790 5787 5785 5782
5856 5854 5851 5849 5846 5844 5841 5838 5836 5834 5832 5830 5828 5825 5825 5822 5820 5818 5816 5815 5813 5812 5811 5810 5808 5807 5806 5805 5804 5803 5801 5800 5799 5797 5796 5794 5793 5791 5789 5787 5785 5782 5779 5776
5850 5849 5846 5843 5840 5837 5835 5833 5830 5828 5826 5824 5823 5820 5819 5816 5814 5813 5811 5810 5809 5807 5807 5805 5803 5802 5800 5798 5798 5797 5796 5795 5794 5792 5790 5789 5788 5786 5784 5781 5778 5776 5774 5771
5846 5844 5841 5838 5834 5832 5829 5827 5825 5823 5821 5819 5818 5816 5813 5811 5809 5807 5806 5806 5804 5803 5801 5800 5798 5796 5794 5793 5792 5791 5790 5789 5788 5787 5785 5783 5781 5779 5777 5775 5773 5771 5768 5766
5841 5838 5835 5832 5830 5827 5824 5822 5820 5818 5815 5813 5812 5810 5808 5806 5804 5803 5801 5800 5799 5798 5796 5793 5791 5790 5789 5787 5786 5785 5784 5783 5782 5781 5779 5777 5775 5772 5770 5769 5767 5765 5763 5761
5835 5833 5829 5826 5823 5821 5820 5817 5814 5812 5810 5808 5806 5808 5804 5801 5799 5798 5796 5795 5794 5792 5790 5788 5786 5785 5783 5782 5781 5780 5779 5778 5776 5775 5773 5771 5769 5765 5764 5763 5761 5759 5757 5755
5831 5827 5824 5821 5818 5816 5814 5812 5810 5808 5806 5803 5801 5803 5799 5797 5795 5793 5791 5789 5788 5786 5784 5782 5781 5779 5778 5776 5776 5775 5773 5772 5771 5769 5767 5765 5764 5762 5760 5758 5756 5754 5752 5749
5827 5823 5820 5818 5817 5814 5811 5808 5806 5804 5802 5799 5797 5798 5793 5792 5789 5787 5785 5784 5783 5781 5779 5778 5776 5775 5773 5772 5771 5770 5768 5767 5765 5764 5761 5760 5759 5757 5755 5753 5751 5749 5747 5745
5822 5819 5816 5813 5809 5807 5805 5804 5802 5800 5797 5795 5793 5791 5789 5787 5784 5782 5780 5779 5777 5776 5775 5774 5772 5770 5769 5768 5766 5765 5763 5762 5761 5759 5757 5755 5754 5752 5750 5748 5746 5744 5742 5740
5818 5815 5812 5808 5805 5803 5801 5799 5797 5795 5792 5790 5788 5785 5783 5781 5779 5777 5776 5774 5773 5771 5770 5769 5768 5766 5765 5764 5762 5760 5759 5758 5757 5755 5753 5751 5749 5747 5746 5744 5742 5740 5738 5736
5813 5810 5808 5805 5802 5799 5798 5795 5793 5790 5788 5785 5783 5781 5779 5776 5775 5773 5771 5770 5768 5767 5766 5765 5764 5762 5761 5760 5759 5757 5756 5754 5753 5751 5749 5747 5745 5743 5741 5739 5737 5736 5734 5732
5809 5806 5804 5802 5799 5796 5795 5792 5789 5786 5783 5781 5779 5778 5774 5772 5771 5769 5768 5766 5765 5763 5762 5762 5761 5760 5759 5757 5756 5755 5753 5751 5749 5748 5746 5744 5742 5740 5738 5736 5734 5732 5730 5728
5805 5802 5799 5797 5795 5792 5793 5787 5785 5782 5779 5777 5775 5772 5770 5769 5767 5766 5765 5764 5763 5761 5760 5759 5759 5758 5756 5755 5754 5752 5750 5749 5747 5746 5744 5741 5739 5737 5735 5733 5731 5729 5726 5724
5802 5799 5795 5793 5790 5789 5787 5784 5781 5779 5777 5774 5771 5769 5767 5766 5764 5764 5762 5761 5760 5759 5758 5757 5757 5755 5754 5753 5752 5750 5749 5747 5745 5744 5741 5739 5737 5735 5733 5730 5728 5725 5723 5720
5798 5795 5792 5789 5786 5784 5784 5781 5778 5776 5774 5771 5769 5766 5764 5763 5762 5762 5760 5758 5757 5756 5756 5755 5754 5752 5752 5751 5750 5748 5747 5745 5744 5742 5740 5738 5736 5733 5731 5728 5725 5723 5720 5717
5794 5791 5789 5786 5782 5781 5780 5777 5775 5774 5772 5768 5765 5763 5761 5760 5759 5758 5757 5756 5755 5754 5754 5753 5752 5751 5750 5749 5748 5747 5745 5744 5742 5740 5738 5736 5734 5731 5729 5726 5723 5720 5717 5714
5789 5787 5785 5782 5780 5780 5776 5774 5772 5770 5766 5764 5762 5759 5758 5757 5756 5755 5754 5753 5753 5752 5752 5752 5750 5749 5748 5747 5746 5745 5744 5742 5740 5738 5736 5734 5732 5729 5726 5723 5720 5717 5714 5711
5786 5784 5780 5779 5779 5775 5772 5770 5768 5765 5763 5761 5759 5757 5755 5754 5753 5752 5752 5751 5751 5750 5749 5749 5748 5747 5746 5745 5744 5743 5742 5740 5738 5736 5734 5732 5730 5727 5724 5721 5718 5715 5712 5708
5782 5780 5777 5775 5773 5771 5769 5767 5764 5762 5760 5758 5756 5754 5753 5751 5750 5749 5749 5749 5748 5747 5747 5746 5746 5745 5744 5743 5742 5741 5739 5737 5736 5734 5732 5729 5727 5724 5721 5718 5715 5712 5709 5706
5777 5775 5773 5771 5770 5768 5766 5764 5762 5759 5757 5755 5754 5752 5750 5749 5748 5746 5746 5746 5746 5745 5744 5744 5744 5743 5742 5741 5740 5738 5737 5735 5733 5732 5730 5727 5724 5721 5718 5715 5712 5709 5706 5703
5772 5770 5768 5766 5765 5763 5762 5760 5758 5756 5754 5753 5751 5749 5748 5746 5745 5744 5744 5743 5743 5742 5742 5741 5741 5740 5739 5738 5737 5736 5735 5733 5731 5729 5727 5724 5722 5719 5716 5713 5710 5707 5703 5700
Wind_Speed
2 4 5 6 7 9 10 10 10 11 14 16 16 15 15 16 17 19 20 21 19 18 18 19 20 20 20 19 19 19 19 18 18 18 18 18 19 20 20 20 20 20 21 20
4 5 6 8 10 12 14 14 13 12 14 17 17 17 17 17 19 21 21 22 21 20 19 19 20 20 20 20 19 20 19 18 18 19 19 19 19 20 21 21 20 21 20 21
7 7 7 10 12 14 14 15 15 16 16 17 18 18 18 19 20 22 23 22 21 21 20 20 20 20 21 20 20 20 20 19 18 18 19 19 20 20 20 21 21 22 22 22
9 9 9 11 14 15 16 16 17 17 18 18 18 20 20 21 22 23 22 21 21 22 22 21 20 20 20 20 20 21 20 20 19 19 18 19 20 20 20 20 21 22 21 21
11 11 13 14 16 17 17 18 18 18 19 19 20 21 21 21 21 21 21 21 22 23 23 23 21 20 20 21 21 21 21 21 19 19 19 20 19 19 19 19 20 21 21 21
12 13 15 17 17 18 18 19 19 19 19 20 20 20 20 21 21 20 20 20 22 22 22 22 20 21 22 21 21 21 21 21 20 19 19 19 19 19 20 20 21 21 21 21
13 15 17 18 19 19 20 21 21 19 19 19 20 20 19 20 20 19 20 21 21 22 22 21 20 21 20 20 21 21 21 21 20 20 20 19 20 20 21 21 22 21 21 21
16 16 17 19 21 22 22 22 22 22 22 20 19 20 19 19 19 19 19 20 20 21 22 22 22 21 20 20 20 21 21 21 21 21 21 21 22 21 21 22 21 21 20 20
20 19 20 20 21 22 22 21 22 22 23 22 20 20 18 17 18 18 17 17 18 19 20 20 20 20 21 21 19 19 20 21 20 21 22 22 22 21 21 21 21 21 20 19
22 21 21 21 21 20 21 21 21 21 22 22 20 20 18 17 18 18 18 19 20 21 21 20 19 19 20 18 17 18 19 20 20 21 21 22 23 22 20 20 20 21 20 20
23 23 22 21 20 20 20 20 21 20 20 21 21 19 19 18 17 19 20 21 21 22 21 22 21 21 20 18 17 18 18 19 20 20 21 22 22 20 19 19 19 18 19 19
23 23 22 21 20 20 20 20 20 21 20 20 21 20 19 19 19 20 19 20 21 22 21 21 20 19 19 18 16 16 17 18 19 20 20 20 19 18 17 17 17 17 18 19
23 22 21 19 18 18 19 19 19 20 21 21 20 20 20 20 20 19 18 19 20 20 19 18 18 18 18 17 16 16 16 17 18 18 18 17 18 17 17 16 16 17 18 18
22 22 21 20 19 19 18 18 18 19 20 20 20 20 19 20 19 18 17 17 17 18 18 17 17 17 17 17 16 15 14 15 16 16 16 17 16 16 16 16 16 17 17 18
22 21 21 20 19 19 19 18 18 19 20 21 21 20 20 19 19 17 16 16 16 16 15 15 15 15 15 15 15 13 13 13 14 15 15 16 15 15 15 15 16 17 17 17
21 20 20 18 18 18 18 17 17 18 19 19 20 21 20 19 18 17 16 16 16 15 14 14 13 13 13 13 14 13 12 12 13 13 14 15 15 15 15 15 16 17 17 17
20 20 19 17 16 16 16 16 16 17 18 18 19 19 18 17 17 17 16 14 14 15 14 13 12 11 11 12 12 11 12 13 13 13 13 14 14 13 13 15 16 16 16 17
20 19 18 18 17 16 16 16 16 16 16 17 17 17 16 16 16 16 15 13 14 14 13 12 12 11 10 10 11 12 12 12 12 12 13 13 13 12 13 14 15 16 17 18
19 19 19 18 17 16 16 16 16 15 15 16 17 16 14 14 14 14 14 14 12 12 11 10 10 10 10 10 11 12 11 11 11 12 12 12 13 13 14 15 15 16 17 17
19 18 18 18 18 17 16 16 16 16 16 16 16 15 14 13 14 12 12 11 10 9 9 9 9 10 10 10 10 10 11 11 11 11 11 11 12 13 14 15 15 16 16 16
18 18 18 18 17 16 15 16 16 17 17 16 15 14 13 12 12 10 10 9 9 9 9 9 9 9 10 9 10 10 10 10 10 11 11 12 12 13 14 15 16 16 16 16
19 19 19 18 17 17 16 16 16 17 17 15 15 14 12 11 10 10 9 8 8 8 8 8 9 10 9 9 10 9 9 10 11 11 11 12 13 14 15 15 16 16 16 17
19 19 19 17 17 17 17 16 17 17 16 16 15 14 12 11 10 9 8 8 8 9 9 9 9 9 9 9 9 9 10 10 11 11 12 13 13 14 14 15 16 16 16 17
18 18 17 17 17 17 16 16 17 17 16 15 14 13 11 10 10 10 9 9 9 9 9 9 9 8 8 8 8 9 10 10 11 12 12 13 14 14 14 14 15 16 17 17
19 19 18 16 16 15 15 16 15 15 15 14 14 13 12 11 11 10 9 10 9 9 8 9 8 8 8 8 8 9 10 11 11 11 12 13 13 13 14 14 15 16 17 18
18 18 18 16 15 16 15 15 14 14 14 13 13 13 13 12 11 11 11 10 9 8 8 8 7 8 8 8 8 9 10 10 11 11 12 12 13 13 13 14 15 16 17 17
Wind_Direction
292 297 302 307 307 305 303 297 290 287 293 292 292 292 292 297 295 294 296 294 292 286 287 293 294 297 301 300 297 295 293 294 292 290 289 289 291 292 292 294 294 293 296 297
316 315 310 313 311 305 303 301 298 291 290 292 291 289 290 292 291 291 295 293 290 287 287 292 294 297 298 298 297 294 294 294 292 290 289 290 294 295 295 295 296 297 298 298
311 318 312 310 307 301 297 297 297 295 295 293 291 287 285 286 286 286 290 290 286 288 288 289 293 293 295 296 295 294 293 292 290 290 291 295 298 299 298 297 296 299 298 297
308 308 302 301 297 295 291 289 290 290 292 292 290 285 283 282 286 287 288 286 285 288 288 289 289 290 290 292 291 291 291 291 291 289 290 293 296 297 298 299 299 299 299 297
308 301 299 297 295 295 294 291 289 287 288 288 285 282 283 284 285 288 287 286 289 290 291 288 289 287 288 292 289 288 289 291 286 287 289 292 293 295 296 299 301 302 300 297
308 305 302 299 298 295 293 289 287 285 289 290 289 287 282 284 285 286 286 289 293 290 292 292 291 290 291 292 290 289 289 289 288 287 291 292 292 295 297 298 299 299 299 300
305 304 300 299 296 295 292 294 295 293 293 294 294 292 286 280 278 282 283 284 286 289 292 294 296 296 293 292 291 288 288 287 292 293 292 291 293 294 297 297 297 297 299 301
313 306 301 298 295 295 295 298 299 297 298 300 300 301 293 283 278 281 283 281 286 288 289 290 292 294 293 292 290 288 287 289 291 293 291 295 294 293 296 296 297 298 300 301
312 310 303 297 297 297 294 295 296 295 296 298 300 302 295 293 282 281 281 284 287 289 291 292 292 292 292 292 290 286 284 287 289 292 293 294 296 293 295 296 297 297 297 300
314 312 310 303 297 295 296 299 301 299 298 297 299 303 299 295 288 288 289 290 290 293 294 291 292 290 291 290 288 286 286 289 290 292 295 295 297 293 294 296 296 298 297 300
314 314 314 309 301 296 298 298 299 303 303 299 299 299 303 297 293 291 289 288 289 293 292 291 290 292 290 289 290 286 288 288 290 292 294 295 297 301 298 297 298 298 299 303
317 315 315 314 309 302 297 297 297 298 300 299 299 301 302 299 295 292 292 291 289 289 289 289 289 290 291 289 287 286 286 288 291 294 294 296 298 301 300 301 300 301 302 304
320 320 317 314 309 301 294 294 298 298 297 301 301 303 302 301 295 293 294 292 289 287 288 288 288 291 292 289 287 287 288 289 292 296 298 298 298 299 300 300 300 303 304 306
319 321 319 316 314 310 304 300 302 302 302 302 305 304 302 301 296 292 293 292 290 289 291 290 292 295 296 293 292 291 291 291 294 299 302 301 297 299 300 299 302 304 305 307
315 317 318 316 313 311 311 309 305 304 304 304 304 303 303 301 299 297 298 299 294 296 294 293 293 296 294 295 297 293 297 300 300 304 305 306 300 300 301 302 305 305 306 309
314 314 316 316 314 312 314 315 310 306 305 305 303 303 301 299 299 301 305 303 301 301 296 296 299 305 302 301 306 303 302 305 305 308 311 310 307 305 307 309 308 308 308 310
315 315 316 317 316 315 316 315 315 311 308 307 307 307 305 304 302 302 307 307 305 302 302 298 298 305 308 309 312 311 317 315 313 314 314 313 312 309 310 311 311 311 311 312
314 312 312 316 317 317 322 321 320 317 313 313 314 313 310 309 307 304 305 304 301 301 301 304 304 306 311 314 315 317 320 319 316 318 318 318 317 314 314 314 314 314 315 315
313 312 313 315 316 318 321 323 324 321 320 317 316 313 309 305 304 303 301 304 303 302 303 309 311 313 317 320 318 316 318 321 319 325 325 322 322 320 322 321 320 319 319 320
311 311 314 318 320 324 325 326 325 322 323 319 312 307 303 303 305 304 299 301 305 300 299 308 314 316 317 320 321 320 322 325 327 329 330 331 329 326 324 325 325 324 324 324
310 310 313 315 317 323 323 323 322 322 324 321 316 311 305 303 304 301 298 303 304 297 297 306 309 310 314 317 317 320 321 325 326 327 330 331 332 332 331 329 326 326 327 329
310 310 312 310 314 321 320 317 317 319 320 321 319 317 309 303 300 297 295 297 301 299 295 299 302 305 312 315 315 318 319 321 322 324 327 330 332 332 332 331 329 329 331 332
306 308 309 308 314 315 315 315 316 317 318 320 321 320 314 307 299 297 288 288 294 298 299 300 300 306 313 314 313 317 320 322 323 325 328 330 331 331 332 331 330 330 331 331
302 305 308 307 308 307 308 309 312 313 315 317 320 320 314 306 299 294 291 286 291 296 300 300 299 305 309 308 309 315 322 324 324 326 328 329 331 331 331 330 330 330 331 332
300 303 305 303 303 303 305 305 307 308 311 313 314 313 313 306 296 291 289 287 288 289 294 296 296 298 299 299 304 312 320 323 326 327 328 328 330 332 333 332 331 333 335 336
299 301 301 300 302 303 304 304 303 304 306 306 309 310 309 306 297 290 287 285 283 283 289 291 292 296 296 297 304 312 318 321 325 328 329 331 333 333 334 335 335 336 337 338